Theta_e
320 321 320 321 321 322 323 323 324 324 325 325 325 326 326 326 326 325 320 334 349 365 367 352 351 351 353 346 342 337 322 319 320 322 324 331 329 333 335 333 338 338 336 337 340
320 320 320 320 321 322 322 323 323 324 324 324 325 326 326 327 324 319 344 360 363 366 348 341 341 339 330 329 330 326 319 322 328 328 325 330 330 329 331 333 333 335 337 339 339
319 319 320 320 321 321 322 322 323 323 323 323 324 326 326 326 322 321 353 362 364 364 342 338 342 337 320 325 323 325 318 325 331 328 329 328 326 332 328 329 332 330 333 337 336
318 319 319 320 321 321 321 322 322 322 322 323 324 326 327 323 310 327 349 354 364 349 340 341 335 319 319 317 322 319 322 326 331 328 330 328 331 327 327 333 337 336 336 335 334
317 318 319 320 320 321 321 321 321 321 321 323 324 326 321 316 315 336 353 358 348 338 337 337 323 319 315 319 321 318 319 327 330 329 330 330 324 325 327 339 339 338 336 334 334
317 318 319 319 320 320 321 321 320 320 321 323 325 327 320 308 331 337 330 336 335 334 333 333 323 322 318 318 318 320 322 323 330 326 326 323 324 326 332 339 338 337 335 335 334
317 318 319 319 319 320 320 320 319 320 321 324 326 325 317 314 324 334 328 327 329 333 330 331 323 318 318 318 323 321 316 320 327 327 323 325 320 321 326 330 336 337 338 338 338
318 318 318 319 319 319 318 318 317 320 323 326 329 320 312 323 321 320 330 329 331 332 334 332 325 318 317 322 320 317 316 312 323 326 325 323 312 322 327 330 335 337 337 339 339
318 318 318 318 318 317 316 316 318 323 326 328 318 314 312 322 314 319 320 328 329 329 331 334 321 315 318 313 310 313 306 314 319 324 324 321 316 325 327 326 331 336 337 338 339
318 318 318 317 317 316 314 316 322 322 327 326 322 309 315 313 313 316 320 324 323 324 322 318 314 309 310 307 301 307 308 314 314 319 318 314 314 327 330 329 332 335 337 338 339
318 318 317 317 316 314 312 318 315 313 316 310 310 313 314 316 316 314 320 318 317 314 308 314 306 303 308 311 314 312 310 309 314 319 316 312 313 320 329 330 333 334 335 337 339
317 317 316 316 315 313 310 315 319 316 309 319 317 315 315 314 310 313 315 311 311 306 310 307 302 312 314 313 310 310 308 307 312 317 313 314 312 316 319 329 333 334 334 337 338
315 316 316 314 313 311 316 320 326 319 307 315 316 314 311 313 310 311 312 312 308 306 307 301 306 313 312 308 307 304 306 306 306 311 311 309 307 312 318 320 332 336 337 339 339
315 316 315 312 312 317 319 325 323 321 303 310 310 311 313 312 307 317 314 311 308 304 306 303 309 308 306 304 303 301 309 309 307 303 298 307 296 305 314 315 323 326 335 338 334
315 315 313 312 307 312 322 322 319 316 297 310 308 316 313 307 307 310 315 310 305 305 302 302 304 304 303 304 306 301 306 304 306 300 297 301 296 302 309 308 315 327 335 335 332
314 314 312 312 312 314 318 322 316 302 299 307 311 308 306 308 309 311 310 310 310 305 304 304 309 305 303 306 306 308 303 302 300 297 290 297 296 297 302 310 316 319 322 335 336
312 312 310 314 317 321 322 316 300 297 311 307 305 306 305 303 305 307 306 299 297 294 295 302 304 307 307 299 304 302 295 289 289 290 291 297 297 300 311 313 314 311 315 328 334
311 310 313 315 317 318 318 308 298 309 308 312 308 306 304 305 305 307 304 300 303 301 297 295 296 305 307 302 299 298 297 290 286 288 291 297 295 303 313 312 311 312 313 323 327
310 313 315 321 319 318 311 301 304 308 313 309 308 303 302 306 304 304 303 302 305 304 296 295 298 308 308 306 304 298 296 300 291 291 290 294 300 311 313 309 311 310 316 324 327
315 319 319 322 321 315 308 301 307 314 315 312 304 305 302 305 303 301 301 307 306 308 307 301 296 304 307 308 305 304 303 293 293 287 286 294 296 299 305 308 311 313 317 319 323
315 317 325 325 320 311 302 304 310 315 316 311 307 306 307 305 305 303 303 308 310 310 309 306 301 301 304 300 301 299 296 297 294 293 288 288 294 308 310 310 311 317 319 320 332
319 315 322 322 309 309 305 308 311 312 315 311 311 310 309 309 305 305 306 310 313 312 307 308 302 298 302 308 309 307 301 298 293 293 293 292 294 310 311 313 317 320 324 329 334
320 321 321 319 303 305 309 309 311 311 311 312 309 311 311 307 304 308 310 315 315 314 307 308 302 297 301 302 307 304 304 308 300 298 293 292 295 312 310 314 319 322 324 328 334
318 316 316 315 313 308 309 313 309 314 313 314 313 313 310 307 308 308 309 314 315 315 325 314 300 298 296 299 302 301 306 307 304 295 296 295 299 309 312 314 318 321 323 326 331
320 319 318 308 308 309 313 314 311 309 312 313 310 310 308 303 306 306 310 310 313 322 313 308 300 301 303 305 306 305 306 307 303 305 297 302 300 307 312 315 317 323 326 327 327
318 315 317 313 315 311 309 311 311 310 311 309 309 311 310 305 309 307 310 309 309 312 308 308 302 304 302 307 306 304 308 308 308 306 305 305 304 308 317 316 318 321 326 326 326
323 322 318 311 311 310 311 313 311 313 315 315 314 313 312 312 314 313 312 311 309 305 305 304 301 300 296 303 303 297 303 305 305 307 306 301 306 312 315 316 319 318 322 326 327
Wind_Speed
13 13 13 14 14 15 15 15 15 16 15 17 17 17 17 19 22 4 5 3 5 18 7 6 15 19 20 16 17 10 5 3 5 4 5 13 10 6 10 7 8 7 19 19 16
14 14 14 14 14 15 15 15 16 16 16 17 16 16 16 17 5 8 3 7 7 11 5 11 13 14 12 13 8 5 3 11 9 16 23 11 11 8 6 19 18 21 17 17 12
14 14 15 15 15 15 16 16 16 17 17 17 17 16 16 14 5 3 3 2 8 7 7 13 16 17 13 11 3 3 4 7 5 27 25 14 8 12 6 9 20 24 21 15 9
15 15 15 15 16 16 16 16 17 18 18 18 17 17 17 4 3 3 6 3 5 4 8 12 12 8 6 8 8 4 9 13 21 26 24 8 10 9 2 15 22 22 19 13 11
14 14 15 16 16 16 17 17 16 18 18 18 16 15 7 3 8 5 7 4 5 2 6 14 12 9 10 12 6 8 8 13 17 21 22 16 3 1 6 20 22 21 18 13 12
14 15 14 15 16 17 17 17 17 18 18 16 14 15 3 4 8 12 9 6 7 6 8 11 8 10 8 14 4 6 8 6 14 7 5 9 2 5 5 11 19 20 16 15 13
15 15 15 15 17 17 18 18 20 19 17 14 11 6 5 12 4 10 11 5 6 8 9 8 10 10 11 11 10 8 9 1 14 8 6 10 7 4 8 1 17 16 15 14 12
15 16 16 16 17 18 19 19 21 18 14 11 6 4 8 6 6 3 8 8 9 10 10 10 7 6 5 10 15 13 5 2 9 14 10 5 5 13 11 5 13 17 16 15 14
15 15 16 17 17 17 18 21 20 15 9 9 3 3 8 0 3 8 7 9 10 9 9 10 4 5 11 7 8 4 5 3 1 11 12 13 3 14 17 12 11 16 15 14 10
15 15 15 15 16 17 23 14 9 12 6 7 8 4 7 8 7 9 9 8 7 7 7 6 3 4 7 3 7 9 7 2 3 1 7 3 6 12 15 16 16 15 16 14 14
15 15 15 15 15 14 13 3 2 2 4 10 6 6 6 8 5 8 8 6 6 4 6 8 2 7 13 10 10 8 7 8 6 7 2 3 3 9 16 15 18 17 15 14 14
16 16 16 16 15 12 4 4 8 5 7 17 18 15 7 5 4 5 4 5 6 7 8 6 7 14 11 9 10 11 6 9 8 7 5 2 7 6 6 16 21 19 15 15 14
18 16 16 17 20 5 6 9 12 8 3 8 14 9 4 4 7 9 9 8 8 7 10 7 12 10 11 6 7 8 3 7 8 7 8 7 9 6 10 6 19 21 20 16 12
17 16 15 21 5 5 6 9 9 3 3 5 8 7 8 6 7 12 12 8 6 8 9 8 12 10 11 5 4 5 11 10 9 8 2 3 7 7 8 11 18 15 20 24 18
16 15 13 6 8 5 9 4 5 3 3 9 7 1 9 6 1 5 10 6 8 9 4 12 9 9 8 7 6 7 7 8 7 9 8 11 2 13 5 5 5 15 23 22 20
16 12 15 2 4 10 14 12 2 1 6 9 7 7 6 8 7 5 4 4 7 8 10 11 10 7 5 6 5 6 6 8 7 2 5 11 4 11 6 8 8 10 8 23 22
15 11 8 8 5 11 10 4 1 4 11 8 7 9 9 8 10 8 7 5 4 2 7 10 16 16 6 4 5 7 4 5 6 3 9 9 3 14 1 9 9 7 7 12 11
12 9 7 7 9 10 7 2 5 9 4 9 10 11 9 9 10 9 9 6 10 9 6 6 13 12 8 9 8 6 3 6 5 4 8 5 4 12 5 9 8 7 7 16 10
10 4 5 7 12 5 2 4 5 9 12 4 8 8 8 9 5 7 10 10 10 12 9 3 6 6 10 6 10 6 4 10 3 6 6 5 9 11 6 7 8 5 12 13 16
4 4 6 7 12 5 2 5 6 9 10 11 1 5 5 8 8 5 4 9 9 6 5 5 6 8 8 8 3 6 6 7 5 1 6 10 8 6 4 5 7 9 10 13 9
3 4 6 14 10 2 4 7 9 13 7 5 10 8 8 2 7 7 6 8 9 7 9 5 4 12 5 4 8 1 4 4 4 5 4 3 8 3 7 6 9 10 10 11 16
4 4 8 9 4 4 6 7 6 12 7 3 7 8 7 8 6 3 2 8 7 8 5 4 2 4 9 10 6 9 10 8 7 9 3 5 9 5 5 7 13 10 11 16 16
4 4 6 8 5 8 10 15 17 4 5 2 5 5 7 7 5 7 6 7 7 7 3 5 5 5 13 8 14 7 5 4 3 4 5 3 8 8 6 11 10 13 14 16 16
3 3 3 4 7 11 12 12 10 6 6 7 5 7 5 4 7 6 6 6 6 7 8 6 2 6 6 8 7 10 13 6 2 3 5 5 4 7 13 15 9 9 12 14 14
4 4 6 5 9 13 15 13 5 6 5 6 5 5 7 4 7 6 8 8 8 11 5 5 4 6 10 12 13 12 13 10 5 6 1 11 6 4 7 13 14 15 13 15 13
4 4 7 9 8 14 16 6 8 4 9 6 5 8 6 2 6 7 8 8 8 7 5 5 4 3 5 7 11 11 10 10 13 10 8 10 12 5 3 9 12 11 13 13 11
4 6 2 7 9 4 4 4 7 8 4 4 7 6 10 9 7 7 7 6 6 4 6 6 5 5 4 9 11 7 8 9 8 7 4 4 9 9 3 7 16 9 13 8 11
Wind_Direction
353 352 348 344 340 338 338 334 331 330 329 325 325 325 327 325 313 176 253 196 177 179 185 224 207 231 238 247 229 160 86 190 207 199 147 146 181 238 219 165 88 124 135 145 166
351 348 345 343 339 336 333 330 328 327 325 323 323 323 325 332 295 262 170 175 179 166 221 245 281 231 232 232 236 135 167 188 187 52 16 87 128 325 15 101 102 117 127 151 159
349 346 342 340 336 333 330 328 324 323 323 321 321 321 320 322 294 245 180 167 182 180 268 284 276 276 283 264 119 254 68 106 166 93 52 55 31 332 290 123 134 136 146 160 156
346 341 339 334 332 330 327 324 323 320 318 317 322 322 316 270 359 48 161 192 206 281 280 289 284 306 344 40 356 345 38 88 108 114 135 195 167 300 336 145 138 140 151 156 167
341 338 336 332 328 327 323 321 316 314 314 315 323 325 339 234 250 139 153 162 186 224 264 283 313 356 344 339 7 33 337 87 113 124 154 164 112 246 346 129 136 141 151 163 173
336 335 334 329 325 324 321 316 312 311 310 313 319 317 256 271 133 152 176 164 238 214 267 279 308 350 319 317 2 350 305 98 84 80 121 134 287 98 136 121 139 148 159 170 178
334 332 330 327 324 323 318 312 309 307 307 309 311 299 268 247 2 172 167 204 223 227 258 301 355 19 318 323 319 282 296 137 137 148 128 101 0 223 233 312 147 157 166 174 185
330 329 328 327 325 323 316 310 306 301 303 300 290 275 253 306 249 268 185 203 227 252 266 298 324 313 257 274 287 293 300 281 132 148 179 174 231 247 234 185 173 169 174 177 183
326 326 326 326 324 319 312 305 296 291 280 271 262 236 268 298 255 233 242 218 207 233 270 285 334 269 307 296 320 299 242 341 186 179 147 204 189 215 224 205 210 172 175 173 182
324 323 324 323 322 322 316 285 287 315 207 223 255 293 269 234 201 213 233 245 234 216 244 240 253 256 287 278 261 296 329 294 23 348 110 123 335 173 195 180 203 171 178 177 186
324 322 322 320 321 329 340 355 333 316 257 208 188 236 147 217 89 205 207 226 280 269 245 251 215 249 256 267 278 310 336 351 342 321 40 137 305 185 214 197 186 175 179 179 184
322 321 319 317 314 318 282 263 301 309 300 225 252 244 287 19 193 255 283 194 217 250 248 288 257 242 259 272 314 313 358 321 313 300 342 196 242 255 199 192 178 181 177 171 174
319 319 319 317 315 277 227 259 295 307 261 254 205 240 207 195 261 228 195 213 241 234 263 235 253 269 266 275 329 321 322 281 266 270 319 336 305 284 265 225 185 182 178 153 174
315 318 323 321 306 336 240 238 253 306 306 222 195 227 210 190 258 243 187 177 230 251 243 239 263 290 309 296 311 290 298 314 346 25 296 339 282 289 247 246 201 164 173 165 189
315 317 318 3 308 293 317 352 330 2 315 148 157 183 157 181 64 237 173 175 246 242 237 260 278 296 292 264 276 259 337 326 332 343 350 302 48 275 288 262 207 160 181 173 185
312 315 325 166 212 254 298 301 303 341 240 167 135 186 187 226 276 80 116 161 215 257 284 271 286 276 250 330 6 331 293 300 309 243 332 252 184 284 261 201 143 184 171 181 191
307 302 302 310 234 330 312 313 287 226 152 138 171 149 206 185 255 161 165 192 213 216 263 280 258 256 198 275 342 310 335 326 331 349 235 261 234 240 213 115 140 116 124 154 175
298 301 246 234 279 323 291 318 246 258 219 175 134 158 191 189 219 194 151 209 221 228 275 267 319 221 183 175 186 275 180 165 264 283 269 315 316 247 171 122 99 73 44 86 93
315 210 250 231 219 254 310 240 240 327 358 106 151 162 196 226 220 174 186 204 217 197 187 268 278 23 149 162 137 266 287 235 283 308 4 288 317 341 152 130 122 96 85 98 114
270 230 224 202 166 212 227 260 302 319 12 5 299 194 226 212 157 180 240 214 237 249 165 344 1 319 20 80 277 184 235 17 343 309 289 302 316 252 152 113 109 81 79 115 152
243 252 216 157 172 207 221 242 283 286 51 334 328 336 295 272 191 187 232 248 181 94 75 32 46 294 6 182 210 197 249 238 150 153 184 298 287 80 84 101 86 82 67 59 65
268 268 146 160 161 213 229 242 241 276 120 275 318 302 322 340 319 172 95 44 33 76 61 46 230 289 270 290 265 220 195 180 130 281 243 170 270 229 118 110 100 92 76 72 65
263 257 159 180 211 232 239 250 256 352 283 208 243 317 316 327 352 5 48 81 56 65 72 11 339 6 332 336 355 358 340 345 347 39 288 121 282 354 72 112 129 106 83 77 70
280 254 161 209 257 283 287 265 238 183 304 330 321 353 332 327 324 335 316 142 134 114 137 97 241 213 242 260 303 320 322 328 10 49 305 263 30 20 58 60 40 72 84 79 76
238 286 308 210 217 235 259 282 204 192 170 290 343 309 305 329 312 293 332 300 147 155 132 125 253 270 288 299 298 304 313 322 299 281 25 284 307 201 155 134 140 141 114 94 79
302 345 335 295 278 209 234 286 324 233 162 183 207 275 243 291 56 10 8 14 58 342 171 227 257 332 311 312 331 328 333 332 320 321 336 312 315 304 189 113 55 46 62 97 104
7 330 312 289 315 306 292 206 249 277 23 74 46 42 59 50 11 333 310 317 337 20 337 1 21 20 306 323 325 338 316 317 310 281 267 300 285 310 93 185 120 94 82 57 78